Temp
2 2 2 4 3 3 3 4 5 5 5 6 5 5 5 5 4 6 5 5 5 5 5 6 6 7 7 7 7 7 7 7 7 7 6 6 6 6 5 5 5 5 5 4
-1 1 1 2 2 3 3 3 3 4 4 4 5 4 4 3 4 4 5 5 6 6 6 5 5 5 6 7 7 7 7 7 7 7 7 6 6 6 5 5 5 5 5 4
-2 -1 0 1 1 2 2 3 3 4 4 4 3 3 2 2 2 1 2 5 5 6 6 6 6 4 6 6 7 7 7 7 7 7 7 7 7 6 6 6 5 5 5 5
-2 -1 -2 2 2 2 2 3 3 3 3 2 2 1 1 1 1 0 2 4 5 5 6 6 6 6 6 6 6 7 7 7 7 7 7 7 7 7 6 6 6 6 5 5
-1 0 1 2 1 1 2 3 2 2 1 1 1 0 2 0 0 1 0 2 3 4 5 5 5 5 6 6 6 6 7 7 7 7 7 7 6 6 6 6 6 6 5 5
-2 -1 1 1 1 0 1 2 1 -0 -0 -0 -0 0 2 0 1 0 1 1 2 3 3 3 5 5 5 5 5 6 6 7 7 7 7 6 6 6 6 6 6 6 5 5
-2 -2 -0 0 -0 -1 0 0 -2 -2 -2 -2 -2 -1 -1 -2 -1 -0 -0 1 2 3 2 2 3 4 5 5 5 5 5 5 6 6 6 6 6 6 6 6 6 5 5 5
-3 -3 -1 -1 -1 -1 -2 -3 -3 -3 -3 -2 -3 -2 -2 -2 -2 -1 -1 -0 1 2 2 2 2 3 4 5 5 5 5 5 5 6 6 6 6 6 5 5 5 5 4 3
-2 -2 -2 -2 -2 -3 -3 -3 -2 -2 -2 -2 -2 -2 -3 -3 -3 -2 -1 -1 -1 -0 0 1 1 2 3 3 5 5 5 5 5 5 6 6 6 6 5 5 5 4 3 2
-3 -2 -3 -2 -3 -3 -3 -2 -2 -2 -2 -2 -3 -2 -2 -2 -2 -2 -2 -1 -1 -1 -0 -0 -0 1 2 3 4 5 5 5 5 5 5 5 5 4 4 4 3 2 1 0
-3 -3 -3 -2 -3 -3 -2 -3 -2 -2 -3 -3 -3 -3 -3 -2 -2 -2 -2 -2 -2 -2 -1 -0 -1 0 1 3 3 3 4 4 5 5 4 3 3 3 2 3 2 1 0 0
-3 -4 -3 -4 -4 -3 -3 -3 -3 -3 -3 -3 -3 -3 -3 -3 -3 -3 -2 -2 -2 -2 -2 -2 -2 -2 -1 0 0 0 1 1 3 4 2 1 3 2 1 1 1 -0 -0 -1
-5 -4 -4 -4 -4 -4 -4 -4 -4 -4 -4 -4 -4 -4 -3 -3 -3 -3 -3 -3 -3 -2 -2 -3 -3 -3 -2 -1 -1 -1 -0 1 0 2 0 1 1 0 1 0 -0 -2 -2 -2
-5 -5 -5 -5 -5 -5 -5 -5 -4 -4 -4 -4 -5 -4 -4 -4 -4 -4 -4 -3 -3 -3 -3 -4 -4 -4 -4 -3 -5 -4 -4 -1 0 -0 -1 -1 -4 -2 -3 -4 -4 -5 -5 -6
-5 -5 -6 -5 -5 -5 -5 -5 -5 -4 -5 -6 -5 -5 -4 -4 -4 -4 -4 -3 -3 -3 -5 -5 -4 -4 -5 -5 -6 -5 -5 -4 -4 -4 -4 -4 -5 -4 -5 -5 -6 -6 -7 -7
-6 -6 -6 -5 -5 -5 -5 -5 -5 -6 -6 -6 -6 -6 -6 -6 -5 -5 -5 -5 -4 -5 -6 -6 -5 -6 -6 -6 -7 -6 -6 -6 -6 -6 -6 -6 -7 -6 -7 -7 -7 -8 -8 -9
-7 -7 -6 -6 -6 -6 -6 -6 -6 -6 -6 -7 -7 -7 -7 -7 -6 -7 -7 -7 -7 -8 -8 -8 -8 -8 -8 -8 -8 -8 -8 -8 -8 -8 -8 -8 -8 -8 -8 -9 -9 -9 -10 -10
-7 -7 -7 -6 -7 -7 -7 -7 -7 -7 -7 -7 -7 -7 -7 -7 -8 -9 -9 -10 -10 -10 -10 -9 -9 -9 -9 -10 -9 -9 -10 -10 -10 -10 -10 -10 -11 -10 -10 -10 -11 -11 -11 -11
-7 -7 -7 -7 -7 -7 -8 -9 -9 -8 -8 -8 -9 -9 -9 -10 -11 -11 -11 -11 -11 -11 -11 -11 -10 -10 -11 -11 -11 -11 -11 -11 -11 -11 -11 -11 -11 -11 -11 -11 -11 -11 -12 -12
-8 -8 -8 -8 -8 -9 -9 -9 -10 -10 -10 -10 -11 -12 -12 -12 -12 -12 -12 -12 -12 -12 -12 -12 -12 -12 -12 -12 -12 -12 -11 -11 -12 -12 -12 -12 -12 -12 -12 -13 -13 -13 -13 -14
-9 -9 -9 -10 -10 -10 -11 -11 -12 -12 -12 -12 -13 -13 -13 -13 -13 -13 -13 -13 -12 -12 -12 -12 -12 -12 -12 -12 -12 -12 -13 -13 -13 -13 -14 -14 -14 -14 -14 -14 -15 -15 -15 -15
-11 -11 -12 -12 -12 -12 -12 -12 -13 -13 -13 -13 -13 -13 -13 -13 -13 -13 -13 -13 -13 -13 -13 -13 -13 -13 -13 -14 -14 -14 -14 -14 -14 -15 -15 -15 -15 -15 -16 -16 -16 -16 -17 -17
-12 -13 -13 -13 -13 -13 -13 -13 -13 -13 -13 -13 -14 -14 -14 -13 -14 -14 -14 -14 -14 -14 -14 -14 -14 -15 -15 -15 -15 -16 -16 -16 -16 -16 -16 -16 -17 -17 -17 -17 -17 -17 -18 -18
-13 -13 -14 -14 -14 -14 -14 -14 -14 -14 -14 -14 -14 -14 -14 -14 -14 -15 -15 -15 -15 -15 -15 -16 -16 -16 -17 -17 -17 -17 -17 -17 -17 -17 -17 -17 -17 -17 -18 -18 -18 -19 -19 -19
-14 -14 -14 -14 -14 -14 -14 -14 -14 -14 -14 -15 -15 -15 -15 -15 -16 -16 -16 -16 -16 -16 -17 -17 -17 -17 -17 -17 -17 -17 -17 -18 -18 -18 -18 -18 -19 -19 -19 -19 -20 -20 -20 -21
-14 -14 -14 -15 -15 -15 -15 -15 -15 -15 -16 -16 -16 -16 -16 -16 -17 -17 -17 -17 -18 -18 -18 -18 -18 -18 -18 -18 -18 -18 -18 -19 -19 -19 -19 -20 -20 -20 -20 -20 -21 -21 -21 -22
-15 -15 -15 -15 -15 -16 -16 -16 -16 -17 -17 -17 -17 -17 -18 -18 -18 -18 -18 -18 -18 -18 -18 -18 -19 -19 -19 -19 -19 -19 -19 -20 -20 -20 -20 -20 -21 -21 -21 -21 -22 -22 -22 -23
Height
3005 3004 3004 3003 3006 3011 3013 3014 3014 3016 3016 3017 3020 3023 3024 3023 3021 3022 3024 3024 3024 3026 3029 3030 3028 3026 3027 3027 3027 3028 3030 3031 3033 3035 3037 3038 3039 3041 3042 3043 3044 3046 3046 3047
3003 3004 3005 3004 3005 3008 3010 3012 3014 3015 3015 3017 3018 3018 3020 3020 3018 3018 3017 3015 3016 3017 3017 3018 3020 3022 3020 3020 3021 3021 3022 3024 3026 3027 3028 3030 3031 3032 3033 3035 3036 3037 3038 3039
3003 3004 3004 3003 3002 3005 3007 3009 3011 3011 3012 3012 3013 3015 3016 3015 3013 3012 3009 3009 3009 3010 3010 3011 3011 3011 3013 3013 3012 3012 3013 3016 3016 3017 3019 3021 3022 3022 3024 3025 3027 3028 3030 3031
3000 3002 3003 2998 2998 3000 3003 3005 3006 3007 3009 3010 3011 3011 3010 3010 3009 3005 3003 3003 3003 3002 3000 3002 3003 3003 3003 3004 3004 3004 3005 3006 3007 3009 3011 3012 3012 3014 3015 3016 3018 3019 3021 3021
2994 2994 2993 2993 2997 2999 3000 3002 3002 3004 3005 3007 3007 3007 3008 3004 3001 3001 2999 2996 2995 2995 2993 2991 2992 2994 2994 2994 2994 2995 2996 2998 2999 3000 3002 3003 3003 3006 3007 3008 3009 3009 3010 3010
2995 2995 2991 2994 2994 2995 2997 3000 2998 3001 3003 3003 3003 3004 3004 2999 2999 2997 2995 2992 2987 2986 2985 2984 2981 2982 2981 2983 2984 2985 2987 2989 2990 2990 2991 2992 2995 2995 2997 2998 2998 2999 3000 3001
2992 2992 2991 2992 2992 2994 2996 3000 2995 2997 2999 2999 2999 3000 2998 2995 2993 2991 2989 2986 2981 2978 2974 2972 2973 2971 2970 2972 2974 2975 2975 2976 2977 2979 2979 2981 2983 2983 2984 2986 2987 2988 2988 2989
2991 2990 2990 2989 2990 2992 2990 2990 2991 2992 2992 2992 2992 2992 2992 2988 2985 2982 2979 2977 2973 2971 2966 2962 2961 2962 2959 2959 2958 2959 2964 2965 2965 2965 2966 2968 2969 2971 2973 2974 2974 2974 2975 2976
2983 2984 2985 2986 2985 2984 2984 2987 2986 2986 2987 2985 2985 2984 2984 2982 2979 2976 2972 2969 2965 2962 2957 2953 2951 2949 2949 2948 2947 2948 2951 2952 2954 2954 2953 2954 2955 2958 2958 2959 2961 2961 2963 2964
2977 2979 2977 2983 2980 2980 2982 2983 2983 2982 2981 2981 2979 2978 2976 2975 2972 2969 2966 2962 2958 2953 2949 2944 2942 2939 2937 2936 2934 2934 2936 2938 2940 2942 2942 2941 2942 2944 2946 2947 2950 2952 2952 2950
2975 2976 2979 2981 2977 2974 2977 2977 2977 2976 2975 2974 2973 2972 2970 2968 2966 2963 2960 2957 2953 2947 2942 2937 2932 2929 2926 2924 2922 2921 2922 2923 2926 2928 2930 2930 2933 2935 2938 2939 2940 2941 2938 2937
2972 2971 2974 2975 2971 2972 2975 2973 2973 2972 2971 2968 2966 2965 2964 2961 2960 2957 2954 2950 2946 2942 2936 2930 2924 2920 2917 2916 2914 2912 2912 2912 2913 2916 2921 2922 2921 2922 2924 2926 2926 2927 2926 2925
2965 2968 2970 2971 2968 2971 2971 2969 2968 2965 2963 2962 2960 2958 2957 2956 2953 2950 2946 2943 2940 2936 2931 2923 2920 2916 2911 2908 2898 2904 2906 2906 2906 2904 2909 2909 2910 2912 2913 2912 2912 2911 2913 2914
2965 2966 2966 2968 2965 2966 2965 2964 2961 2959 2957 2956 2954 2952 2950 2948 2945 2943 2940 2936 2933 2930 2926 2921 2918 2913 2909 2901 2898 2897 2897 2899 2898 2900 2900 2904 2900 2895 2903 2905 2906 2908 2911 2910
2960 2960 2959 2959 2960 2959 2958 2957 2954 2951 2949 2948 2947 2945 2942 2940 2938 2936 2933 2929 2927 2923 2920 2917 2915 2913 2908 2905 2902 2898 2900 2896 2897 2897 2899 2899 2902 2897 2901 2900 2903 2904 2907 2909
2952 2952 2952 2951 2951 2951 2950 2948 2945 2943 2941 2941 2940 2937 2934 2932 2931 2929 2927 2924 2921 2918 2916 2914 2911 2910 2908 2907 2904 2902 2902 2899 2899 2899 2897 2899 2902 2898 2900 2902 2902 2902 2904 2905
2946 2945 2946 2944 2943 2943 2941 2939 2937 2936 2934 2933 2932 2931 2929 2927 2925 2923 2921 2919 2916 2914 2914 2912 2909 2907 2905 2904 2904 2901 2901 2900 2900 2899 2898 2899 2900 2899 2897 2898 2897 2897 2898 2899
2940 2939 2939 2937 2934 2933 2932 2931 2930 2929 2928 2927 2926 2925 2923 2922 2920 2919 2917 2916 2915 2913 2912 2911 2909 2907 2906 2905 2904 2904 2903 2902 2899 2898 2897 2898 2898 2895 2893 2893 2892 2893 2894 2893
2931 2931 2930 2930 2928 2926 2924 2924 2923 2922 2922 2921 2921 2920 2919 2918 2918 2917 2916 2915 2913 2913 2911 2910 2908 2907 2906 2906 2906 2904 2902 2900 2899 2899 2899 2898 2896 2893 2893 2891 2890 2890 2888 2888
2926 2926 2925 2924 2922 2921 2921 2920 2920 2919 2919 2919 2918 2918 2919 2918 2918 2916 2915 2914 2913 2912 2911 2910 2909 2908 2907 2906 2905 2903 2900 2899 2898 2898 2897 2895 2892 2890 2888 2885 2884 2882 2881 2881
2924 2923 2922 2922 2921 2921 2920 2920 2920 2920 2920 2920 2920 2920 2919 2919 2918 2917 2916 2915 2913 2912 2911 2909 2908 2906 2904 2903 2901 2899 2896 2894 2894 2892 2891 2888 2886 2884 2881 2879 2878 2876 2875 2875
2924 2924 2923 2923 2923 2923 2922 2922 2922 2922 2921 2921 2921 2920 2920 2919 2917 2916 2914 2912 2910 2908 2906 2905 2903 2901 2900 2898 2895 2894 2891 2889 2888 2887 2884 2881 2880 2878 2876 2874 2872 2871 2870 2868
2925 2925 2926 2925 2925 2925 2925 2924 2924 2923 2923 2922 2920 2919 2918 2916 2914 2913 2911 2909 2907 2905 2903 2901 2899 2898 2895 2893 2891 2889 2887 2885 2883 2882 2879 2877 2876 2874 2871 2870 2867 2865 2864 2862
2927 2927 2927 2927 2927 2926 2926 2925 2924 2923 2922 2920 2919 2917 2915 2913 2911 2909 2907 2905 2903 2901 2898 2896 2894 2892 2890 2889 2888 2886 2883 2882 2880 2876 2874 2873 2871 2869 2867 2864 2861 2859 2857 2856
2928 2928 2928 2927 2926 2926 2924 2923 2922 2920 2918 2917 2915 2912 2910 2908 2906 2904 2902 2900 2898 2896 2894 2892 2891 2889 2887 2886 2884 2882 2880 2878 2875 2873 2870 2868 2865 2863 2860 2858 2855 2853 2851 2849
2928 2927 2927 2926 2924 2923 2921 2920 2918 2916 2914 2912 2910 2908 2906 2904 2902 2900 2898 2896 2894 2893 2891 2889 2888 2886 2884 2882 2880 2877 2875 2872 2869 2867 2864 2862 2859 2856 2854 2851 2848 2846 2844 2841
2926 2925 2924 2923 2921 2919 2917 2915 2913 2911 2909 2907 2905 2903 2901 2899 2897 2895 2894 2892 2891 2889 2887 2885 2883 2881 2879 2877 2874 2871 2868 2865 2863 2860 2857 2854 2852 2849 2846 2844 2841 2838 2836 2834
Wind_Speed
17 9 8 12 19 14 16 18 15 17 14 14 12 12 14 14 16 23 18 17 18 11 11 11 21 20 20 23 32 27 30 31 28 29 31 33 33 33 34 32 33 35 36 36
8 8 7 9 13 17 17 17 18 19 19 18 17 14 12 15 16 19 23 26 26 25 24 21 12 22 24 25 28 36 35 34 32 34 32 34 37 39 40 40 36 37 37 37
6 8 8 12 19 18 17 17 15 17 12 6 7 10 13 17 18 18 21 26 31 30 29 27 27 19 23 25 29 29 32 38 40 39 34 33 32 36 37 37 35 32 33 34
8 6 4 7 3 9 17 16 15 13 10 7 8 10 13 12 11 16 28 31 33 39 39 34 31 32 32 29 31 35 32 33 38 39 35 35 35 36 34 35 34 34 35 35
11 12 11 8 5 11 10 8 9 7 5 4 5 8 5 7 17 20 23 30 36 37 43 46 41 35 34 34 33 33 37 34 36 39 39 41 40 39 39 40 41 41 41 41
9 14 11 11 8 11 8 10 10 5 3 4 6 5 9 17 18 16 20 26 35 39 41 37 48 47 43 38 36 34 35 38 39 42 44 42 40 43 45 48 50 49 46 44
20 14 11 13 10 4 14 8 7 2 2 6 7 10 15 17 20 24 25 28 31 34 41 44 39 44 49 49 43 40 37 34 43 45 45 47 47 45 46 50 53 52 51 50
24 16 16 8 13 10 9 4 1 3 9 17 15 15 15 21 25 28 31 33 29 32 38 44 45 41 41 51 57 52 44 40 39 44 50 52 53 52 50 46 48 54 54 48
18 19 5 5 11 11 14 11 14 18 20 22 17 13 16 18 22 27 33 35 39 41 35 39 43 43 44 41 48 57 53 51 46 42 43 46 47 52 53 50 55 56 48 43
13 16 15 10 4 15 15 19 22 25 24 23 24 23 25 25 26 28 30 33 36 35 41 38 41 39 41 43 40 48 57 55 54 48 43 39 43 47 48 49 47 43 47 49
13 11 9 5 11 23 22 25 27 27 27 29 29 29 31 29 27 27 29 31 31 34 41 41 37 35 31 35 37 42 45 46 54 46 43 36 37 35 36 40 42 46 46 45
9 14 15 9 15 21 22 25 26 29 31 33 35 33 31 29 29 29 34 32 31 33 36 33 30 29 24 24 26 25 32 34 35 47 38 34 39 39 41 41 42 40 39 36
18 14 13 19 26 25 23 27 25 26 27 28 29 25 23 23 26 31 34 31 30 32 32 30 35 30 23 26 23 18 23 28 30 40 42 39 37 42 38 40 40 35 35 35
22 22 24 20 24 24 28 27 29 32 29 26 23 25 26 29 31 33 33 31 33 34 30 26 34 32 23 13 18 7 17 22 24 28 26 29 14 20 21 17 17 16 17 17
21 20 27 28 26 26 27 28 31 31 28 27 25 29 33 34 33 31 30 27 33 35 26 21 24 24 17 9 4 6 7 5 5 8 12 14 18 14 14 15 16 15 15 17
23 24 26 29 30 27 29 30 29 26 28 31 32 29 28 28 27 28 25 26 23 22 19 15 14 13 12 9 6 6 11 12 11 8 8 9 10 10 12 13 15 17 19 21
24 26 27 30 33 32 31 27 25 24 24 27 25 25 24 23 24 20 16 14 14 9 8 6 6 4 5 6 7 5 4 5 7 7 8 10 13 14 14 16 17 18 19 20
27 27 27 26 26 23 24 25 23 22 22 23 25 22 18 16 14 11 8 6 6 6 7 8 7 6 6 6 6 7 7 8 8 9 10 11 11 13 14 15 16 18 20 22
17 18 20 20 19 19 20 20 20 20 19 17 15 11 10 8 6 5 4 2 5 6 8 7 6 6 6 7 7 8 8 9 11 12 13 14 15 16 17 18 20 21 23 24
14 15 16 14 13 12 14 12 9 8 7 7 3 2 1 2 3 2 2 2 4 4 5 5 5 7 9 10 11 12 12 13 14 14 15 16 17 18 19 19 20 21 22 23
8 8 7 4 2 2 2 3 4 4 4 5 4 3 2 1 2 2 4 5 8 10 12 12 12 12 13 14 14 15 15 15 15 16 16 16 16 17 17 17 18 18 19 20
3 3 5 7 7 7 8 8 8 7 6 5 2 1 4 6 8 9 10 10 11 12 13 15 16 16 17 17 17 17 16 16 16 16 16 16 16 16 16 17 17 19 20 20
10 10 10 10 8 7 5 4 3 3 4 6 7 9 10 10 11 12 13 14 15 15 16 16 16 16 16 16 15 15 15 15 15 15 15 15 16 17 18 19 20 21 21 22
8 6 5 3 2 2 4 6 7 8 9 10 11 13 14 14 15 16 16 17 17 17 16 15 15 14 13 13 13 13 14 14 15 16 17 18 19 20 20 21 21 22 22 23
3 1 2 5 7 8 9 10 12 13 14 16 16 17 18 18 18 18 18 17 16 15 14 13 13 13 13 13 14 15 16 17 18 18 19 20 20 21 21 22 22 22 23 23
4 6 8 10 11 13 14 15 16 17 18 18 18 18 18 18 18 17 15 14 13 12 12 11 12 13 14 15 16 17 19 20 20 21 22 22 23 23 24 24 24 24 24 24
10 12 13 15 16 17 18 18 19 19 18 18 18 18 17 15 14 12 11 11 11 11 12 13 14 15 17 18 20 21 23 24 25 26 26 27 27 27 27 27 27 26 25 24
Wind_Direction
233 251 238 218 206 209 216 224 243 238 240 256 267 275 280 288 294 274 288 280 266 279 289 276 278 272 269 256 242 244 242 243 248 253 252 248 246 243 244 246 256 255 254 256
255 228 244 231 224 227 230 235 242 248 260 264 264 258 266 277 286 273 268 266 263 258 246 250 260 262 269 260 249 244 243 245 248 252 255 254 252 250 248 250 252 251 253 257
261 242 258 254 235 228 231 233 238 242 251 261 252 265 273 283 285 294 271 253 250 255 258 254 248 255 260 259 247 248 248 245 245 251 251 255 255 250 247 248 245 245 250 255
229 196 224 229 187 208 230 240 240 248 252 257 266 270 281 301 283 279 266 258 253 254 254 254 252 251 244 248 253 253 254 250 247 242 248 250 251 250 247 241 239 245 251 256
246 249 259 237 285 246 231 248 215 210 201 232 288 297 303 226 275 295 298 284 268 261 256 252 255 251 250 247 251 256 252 251 244 244 247 249 251 251 245 242 245 248 249 254
213 243 253 259 234 232 225 232 180 174 216 272 301 299 260 278 279 306 306 300 288 279 275 274 259 257 251 247 250 250 257 258 251 247 243 244 247 250 246 245 248 251 251 253
228 242 255 239 222 240 210 164 157 143 286 295 297 285 287 299 310 312 313 302 295 291 285 277 273 262 263 257 252 255 253 252 252 247 246 247 247 249 248 249 250 251 252 252
222 233 241 243 220 226 200 144 218 294 312 313 320 314 301 291 308 307 309 314 307 305 287 281 277 266 264 260 253 254 253 255 254 251 250 252 251 251 255 254 255 250 250 248
203 223 204 208 208 209 225 243 280 286 300 306 308 308 309 309 310 311 307 307 310 313 307 291 287 279 269 270 260 254 255 259 261 261 250 249 250 250 252 246 249 248 243 241
207 219 196 192 233 261 247 278 286 289 292 294 296 300 309 308 305 308 314 308 315 311 310 303 287 277 274 271 272 257 251 257 260 261 253 250 251 248 247 247 247 246 247 250
244 246 220 240 278 274 278 280 281 282 283 284 288 293 302 304 304 306 307 306 312 316 315 298 285 272 272 272 269 258 252 251 251 255 251 246 250 250 252 252 248 245 241 248
227 229 226 233 256 261 276 282 286 283 280 284 287 291 292 294 298 297 305 300 306 314 314 308 294 279 268 278 268 254 251 242 241 249 259 252 246 244 236 233 236 238 242 242
238 246 241 250 261 271 281 283 286 291 283 281 281 281 284 289 293 295 304 299 302 312 315 312 309 305 299 267 227 223 232 226 246 252 240 222 234 231 224 224 224 233 238 239
257 258 264 267 266 280 283 286 282 289 282 275 270 276 281 288 295 297 304 297 297 302 308 314 319 308 300 325 304 240 215 215 220 231 230 225 216 221 228 228 232 239 243 252
267 256 272 278 278 279 288 288 290 282 272 275 274 284 286 288 291 296 300 295 298 301 305 297 305 302 308 296 341 293 274 268 238 236 259 249 235 242 234 242 248 254 264 270
268 269 272 277 280 281 286 289 289 283 273 276 285 293 291 291 292 296 295 293 295 303 302 286 289 289 309 302 301 287 290 295 287 271 247 246 254 255 257 264 272 274 275 278
266 266 277 279 282 282 281 281 284 291 288 284 279 290 291 286 290 292 286 287 286 290 290 281 286 310 296 295 296 303 295 277 269 272 268 269 272 271 275 281 284 285 287 290
272 272 278 284 285 286 286 283 281 282 284 286 285 280 273 272 278 281 281 274 277 296 300 298 297 292 289 294 291 284 288 295 297 295 296 295 296 298 297 298 298 296 293 291
281 285 289 287 285 294 297 288 279 277 278 275 267 266 268 266 259 255 258 299 320 313 308 296 297 295 304 312 322 327 322 321 319 314 307 302 298 296 290 288 286 286 287 288
292 291 286 286 292 293 288 283 271 259 248 235 214 214 217 244 253 270 297 8 358 337 331 336 333 326 322 319 315 309 305 302 298 291 287 286 286 286 287 288 288 289 290 291
286 278 276 274 270 242 195 171 131 126 128 118 108 102 98 68 35 0 339 324 319 321 322 320 313 309 305 303 301 299 300 299 296 297 295 295 296 295 296 297 298 299 299 298
170 147 128 113 111 115 113 108 104 100 92 87 76 344 313 311 311 311 310 309 306 304 306 307 306 305 304 304 304 305 305 304 303 301 301 303 303 304 304 304 303 303 302 302
127 123 119 111 104 97 87 74 47 3 322 313 313 310 306 303 304 305 304 305 304 305 305 304 303 301 301 303 305 306 307 307 306 305 307 307 305 306 306 305 305 304 303 302
128 120 105 87 52 350 334 330 323 314 307 303 301 299 298 299 299 301 303 304 304 304 304 305 306 308 310 309 309 310 311 310 310 311 309 307 305 305 304 305 306 305 303 301
126 80 332 327 328 321 313 307 303 300 299 297 297 299 301 302 303 305 305 306 306 307 308 309 310 312 313 314 315 314 313 312 312 312 311 310 310 310 309 309 307 304 302 300
321 319 315 310 307 304 301 299 297 296 296 296 298 299 299 300 300 301 301 301 301 302 304 308 311 314 316 317 318 318 317 316 314 312 310 308 307 307 307 308 307 306 304 303
306 305 303 300 298 296 294 292 292 292 294 295 296 297 298 299 299 298 298 301 304 308 312 315 318 319 320 321 320 320 318 317 315 314 312 310 308 307 306 305 304 303 301 300